GFSFLT2_con_sbcape_000.txt.gz
CAPE
0 0 0 0 0 0 26 39 23 1 1 0 0 15 0 32 91 204 637 576 359 633 864 1136 1381 1895 2553 3278 3059 3142 3067 3414
0 0 0 0 0 0 2 67 36 4 12 0 7 0 0 25 115 236 573 662 418 549 774 1043 1312 1606 2027 2541 3149 2886 2865 3048
0 0 0 0 0 0 1 4 12 22 1 0 0 0 0 3 124 159 448 762 705 518 618 1031 1135 1396 1873 2296 2623 2859 2836 3425
0 0 0 0 0 0 2 1 10 9 0 0 0 0 0 0 8 10 260 733 909 808 791 912 1251 1216 1541 1939 2382 2695 3304 3540
0 0 0 0 0 0 0 2 96 14 0 0 0 0 0 49 84 99 442 767 1079 1076 1174 1208 1242 1862 1606 1984 2181 2361 2767 2902
0 0 0 0 0 0 0 3 1 5 26 6 0 0 0 0 96 210 691 903 1224 1254 1514 1578 1941 2671 2728 2039 2192 2382 2483 2869
0 0 0 0 0 0 0 0 3 0 8 11 1 0 0 0 4 238 865 967 1321 1500 2493 2777 2740 2870 2583 2360 2402 2460 2670 2713
35 8 7 4 0 0 0 0 0 0 0 0 0 0 0 0 0 289 1017 1103 1419 1670 1938 2312 2362 2491 2564 2594 2495 2641 2819 2892
216 111 66 63 11 3 0 0 0 0 0 0 0 0 0 1 123 332 960 1135 1298 1635 1849 2315 2444 2685 2635 2645 2599 2681 2893 3024
342 289 247 1 1 0 0 0 0 0 0 0 0 0 15 153 81 349 966 1149 1281 1389 1751 2013 1974 2102 2180 2333 2541 2734 2980 2999
204 290 134 31 196 28 3 0 0 0 0 0 0 3 294 192 181 516 1033 1355 1392 1329 1605 1842 1565 1804 1903 2096 2360 2557 2764 2824
298 197 174 566 323 222 315 80 0 0 0 0 9 42 1 361 125 246 755 984 1177 1086 1399 1362 1377 1506 1874 2058 2385 2624 2728 2656
271 310 301 444 265 400 352 51 4 44 117 160 243 406 538 417 490 691 1052 1164 1246 1161 1102 1333 1373 1626 1856 2080 2341 2514 2695 2494
303 362 331 165 440 665 658 457 448 455 522 528 495 737 849 873 1058 1126 1058 896 820 1307 1703 1716 1748 2005 2283 2430 2671 2805 2776 2120
284 208 218 80 275 457 589 615 600 605 564 577 534 632 720 734 735 767 728 742 870 1433 1904 2162 2370 2381 2698 3294 3053 2911 2231 1949
510 243 70 38 66 185 323 374 360 374 330 384 366 413 473 580 819 1125 1291 1141 1137 1312 1791 2409 2530 2653 3047 2568 2637 2721 2174 2059
280 105 17 6 0 1 27 105 206 253 275 313 617 833 1116 1288 1270 1295 1391 1323 1247 1437 2031 2337 2405 2426 2318 2245 2191 2190 1987 1741
137 123 46 0 0 0 0 0 2 37 34 50 163 264 516 960 1295 1478 1765 1802 1869 1966 2300 2401 2416 2400 2419 2133 2181 2062 1414 1410
79 1 0 0 0 0 0 0 0 0 0 0 0 0 1 31 86 155 767 1023 1948 1849 2070 2163 2298 2304 2288 2302 2046 1813 1699 1650

GFSFLT2_con_sbcape_003.txt.gz
CAPE
0 0 0 0 0 0 24 67 57 53 54 23 32 75 62 28 9 27 285 679 609 494 861 1530 1655 2436 2919 3787 4357 4577 3631 4870
0 0 0 0 0 0 7 74 71 75 68 62 53 8 5 31 14 12 51 657 662 485 625 1252 1245 1881 2780 3557 4249 4017 4185 4459
0 0 0 0 0 0 1 29 37 70 74 53 59 38 0 3 5 37 58 491 786 567 551 845 918 1472 1980 2745 3842 4045 4184 4125
0 0 0 0 0 0 25 35 21 72 71 29 8 3 4 14 18 31 77 290 652 726 522 650 1262 1077 1293 1712 2069 3138 3961 4437
0 0 0 0 0 0 0 12 132 44 4 23 11 12 43 17 0 6 82 119 589 660 892 888 1054 1305 1056 1623 1503 2028 3433 3525
0 0 0 0 0 0 0 0 7 11 47 87 65 10 1 0 0 8 58 493 535 832 1285 1350 1521 1763 1695 1565 1289 1724 2408 2764
0 0 3 0 0 0 0 0 1 4 40 37 83 70 15 3 0 0 1 369 968 1201 2285 2469 2198 2452 2362 1978 2363 2186 3204 3068
0 0 0 2 3 0 0 0 0 0 1 18 17 86 34 0 0 0 0 15 937 1442 1821 3052 2824 3157 3048 2942 3022 3070 3899 3782
161 66 93 72 0 0 1 1 0 0 0 0 15 64 97 16 0 2 64 94 478 1373 1834 2511 2507 3440 3417 3635 3390 3787 4306 4408
143 330 239 0 99 58 30 22 13 8 0 0 15 33 50 13 1 66 174 171 229 1086 1823 2730 2288 2308 2919 3085 4095 4370 4529 4541
281 406 273 221 541 440 500 195 29 24 1 0 1 2 16 0 0 2 27 224 432 1392 1839 3427 3038 3569 3734 3439 3895 4181 4002 4551
450 266 326 171 700 508 402 211 15 45 49 0 3 65 11 1 30 408 462 246 860 1648 2098 2744 3289 2763 3344 2911 3469 3936 4035 4265
78 216 179 845 502 547 429 417 1114 844 628 308 20 61 685 640 432 523 565 1380 2020 2028 2883 3243 3132 2538 3197 3071 3062 3100 3221 3339
90 142 183 549 556 575 1070 886 1008 993 864 1062 48 631 747 858 939 1010 1215 1600 1712 2228 2590 2520 2879 3082 3368 3566 3724 3908 3752 3447
101 268 916 714 891 840 831 892 1002 1071 962 895 1028 938 1059 1290 1534 1626 1624 1671 1537 1503 2454 2458 3096 3318 3693 4535 4370 4062 3919 3065
552 662 586 672 599 591 621 705 759 1003 1079 1138 1215 1152 1050 931 891 844 965 1290 1339 1598 2156 2697 3180 2822 3591 3528 3599 3661 2900 2466
767 533 331 182 231 230 309 432 419 609 830 1245 1144 1099 1195 1517 1596 1197 1141 1161 1419 1705 2136 2440 2832 3240 2973 3261 3388 2756 2429 2309
521 560 298 0 0 2 0 0 1 21 105 265 634 718 1122 1378 1399 1370 1375 1458 1773 1733 2224 2559 2762 2890 2829 2892 2940 3071 2564 2560
74 60 0 0 0 0 0 0 0 0 0 0 0 9 32 123 277 309 1068 1251 1475 1606 1940 2358 2606 2899 2679 3067 2940 2678 2513 2362

GFSFLT2_con_sbcape_006.txt.gz
CAPE
0 0 0 0 0 0 0 0 7 17 43 12 78 176 11 0 58 112 663 777 715 1010 1144 1578 1626 1945 2409 3423 3903 4210 4212 4173
0 0 0 0 0 0 0 2 18 12 53 122 137 294 130 74 39 51 91 852 923 834 1398 1569 1751 1851 2532 2946 3889 4278 4214 4215
0 0 0 0 0 0 0 0 7 30 29 124 487 522 390 123 37 24 54 685 700 968 1039 1662 1891 1912 2231 2631 3666 4130 4219 4151
0 0 0 0 0 0 0 0 0 0 5 19 252 273 59 56 35 43 55 185 609 1099 950 1348 1643 1753 2144 2602 3233 3768 3972 4103
0 0 0 0 0 0 0 0 8 5 0 0 94 20 209 95 63 223 97 742 734 961 1079 1135 1298 1575 1932 2342 2758 3632 3793 3837
0 0 0 0 0 0 0 0 0 0 7 38 266 112 178 172 141 137 539 1531 988 977 1324 1092 1310 1530 1780 2095 2361 3029 3398 3514
0 0 0 0 0 0 0 0 0 0 0 130 165 325 149 130 183 246 467 1167 1395 1697 1867 1603 1677 1655 1628 1692 1851 2084 2980 3479
0 0 0 5 0 0 0 0 0 0 0 0 48 80 458 191 185 240 269 323 1473 1756 2678 3069 2035 1862 1623 1580 1666 1956 2497 2932
0 0 1 22 0 2 0 0 0 0 0 0 24 149 386 657 294 268 212 306 749 2044 2196 2485 2677 2102 1747 1701 1914 1966 2718 2983
32 160 82 0 0 1 1 1 0 0 0 0 0 7 19 20 89 135 325 157 251 24 2129 2803 2820 2269 2257 2127 2416 2374 3885 3379
234 273 48 36 44 96 42 16 6 4 45 4 0 0 1 0 0 22 6 698 388 54 662 2759 2845 2786 3152 2704 2547 3865 3544 4180
179 82 177 262 460 351 331 238 821 773 632 427 123 34 0 13 65 30 4 61 1062 1165 1337 3201 3335 2997 3180 3471 3238 3121 4110 4405
65 44 0 457 380 216 417 469 883 825 841 801 618 813 1087 1189 1930 1538 264 578 952 2823 3010 3586 3637 3414 3398 3566 3765 3715 4535 4557
204 395 330 523 111 213 892 800 707 675 779 870 1143 1125 1009 854 1228 1365 1277 686 2009 4164 4416 4217 4052 4062 4215 4253 4459 4620 4556 4704
22 23 260 942 1179 856 759 770 1149 1435 1053 702 668 828 1106 1146 1351 1530 1297 2249 2325 3604 4212 4361 4474 3991 4091 4425 4265 4164 4194 4476
158 324 908 803 582 530 697 1119 1149 1185 1309 1536 1516 1206 1288 1433 1691 2162 2513 2826 2777 2934 3252 3783 3856 4089 4332 4276 4228 4115 4068 3337
269 1421 863 694 600 615 604 744 687 366 305 479 982 1053 1533 2102 2295 2519 2616 2831 3295 3511 3829 4095 4517 4167 4229 4437 4300 3549 2942 2526
770 867 778 487 238 30 30 127 42 17 13 108 228 265 360 1107 1160 1477 1889 2115 2509 3281 3441 3136 3485 3866 4068 4046 3478 2982 2551 2344
4 11 0 0 0 0 0 0 0 0 0 0 3 221 31 212 155 717 1417 2372 2902 3127 3394 3436 3336 3230 3548 3707 3156 3013 2652 2650

GFSFLT2_con_sbcape_009.txt.gz
CAPE
0 0 0 0 0 0 0 0 0 0 0 0 0 15 61 27 29 13 37 17 11 137 402 649 733 1470 1513 2475 2516 2598 2777 2669
0 0 0 0 0 0 0 0 0 0 0 0 0 23 20 18 32 26 1 5 64 116 411 681 824 1275 1608 2196 2689 2884 2549 2936
0 0 0 0 0 0 0 0 0 0 0 0 0 33 78 20 15 15 11 64 132 188 371 788 956 1230 1568 2164 2727 2964 3048 2925
0 0 0 0 0 0 0 0 0 0 0 0 0 132 158 33 38 7 0 24 147 243 440 938 1082 1077 1558 2622 2753 3040 3182 3109
0 0 0 0 0 0 0 0 0 0 0 0 0 0 1 1 24 0 10 372 401 310 783 1060 1138 1096 1545 2153 3035 3235 3351 3226
0 0 0 0 0 0 0 0 0 0 0 0 0 18 19 30 16 6 23 216 323 428 886 1036 1299 1260 1266 1863 2755 3221 3479 3342
0 0 0 0 0 0 0 0 0 0 0 0 0 101 65 97 92 53 140 463 389 591 582 1040 1203 1285 1380 1585 1922 2886 3182 3250
0 0 0 0 0 0 0 0 0 0 0 0 0 0 303 167 23 1 424 887 645 663 597 644 931 1062 1298 1549 1885 2245 2912 3068
0 0 0 0 0 0 0 0 0 0 0 0 0 0 41 82 149 2 8 595 714 827 1485 717 891 1056 1287 1502 1638 2030 2511 2881
0 0 11 0 0 0 0 0 0 0 0 0 0 0 7 0 0 0 0 27 342 700 1060 1836 1073 1045 1247 1366 1630 1828 1983 2603
0 0 0 0 0 0 0 0 36 286 158 2 0 0 0 0 0 0 0 0 0 209 951 1427 1614 1245 1067 1148 1416 1489 1637 1983
0 0 0 0 52 187 147 206 730 560 487 372 264 82 20 433 921 72 5 0 0 47 28 1556 1612 1495 1238 1144 1264 1250 1391 1889
25 0 0 76 257 177 92 467 489 398 439 545 460 479 466 476 1084 1221 936 491 0 247 626 1659 1896 1764 1526 1382 1257 1629 1353 2766
86 91 69 436 336 413 658 856 1193 1180 1401 654 497 392 518 802 1022 1226 991 871 3022 1358 1945 2357 2324 2429 2325 1759 1827 3109 3429 4129
0 47 366 440 222 483 511 924 1001 1067 1463 1228 1099 1475 1588 1385 1358 1576 2108 2964 3059 3538 3725 3716 3013 3010 3591 3878 3781 3786 4066 3429
127 0 176 101 181 859 565 331 120 582 721 489 446 391 363 578 1410 2273 2303 2681 2871 3086 3111 3307 3457 3587 3701 3648 3692 3870 3172 2399
142 549 528 454 314 417 300 53 0 15 44 37 14 7 10 1 35 461 1630 2742 2990 3102 3573 3476 3427 3473 3363 3431 3381 2667 2178 1705
186 77 28 113 4 12 4 4 0 0 21 0 0 0 0 0 0 0 3 301 2496 2941 3157 3273 3402 3226 2832 2421 2102 1989 1750 1541
35 0 0 0 0 0 0 0 0 0 0 0 0 0 0 0 0 0 0 0 763 2095 2600 2750 3104 2894 2613 2288 2041 1846 1750 1653

GFSFLT2_con_sbcape_012.txt.gz
CAPE
0 0 0 0 0 0 0 0 0 0 0 0 0 0 0 2 5 0 0 0 0 36 66 122 220 567 903 1332 1231 1368 1565 1234
0 0 0 0 0 0 0 0 0 0 0 0 0 0 0 0 6 2 0 0 0 2 118 246 220 610 1040 1415 1448 1651 1818 1647
0 0 0 0 0 0 0 0 0 0 0 0 0 0 0 6 27 19 10 8 0 4 120 289 357 795 1198 1442 1435 1748 1969 1883
0 0 0 0 0 0 0 0 0 0 0 0 0 0 0 0 1 114 100 3 8 1 71 259 524 940 1143 1665 1674 1771 2102 2106
0 0 0 0 0 0 0 0 0 0 0 0 0 0 0 0 0 0 0 0 0 23 77 303 570 807 1269 1632 1949 2092 2178 2206
0 0 0 0 0 0 0 0 0 0 0 0 0 0 0 0 2 9 19 0 0 45 115 443 671 831 1306 1527 2157 2236 2450 2422
0 0 0 0 0 0 0 0 0 0 0 0 0 0 0 0 0 4 60 2 2 58 181 561 827 870 1216 1703 1983 2322 2487 2667
0 0 0 0 0 0 0 0 0 0 0 0 0 0 0 0 0 0 0 6 76 128 332 610 875 930 1087 1562 2252 2363 2615 2699
0 0 0 0 0 0 0 0 0 0 0 0 0 0 0 0 0 0 0 137 190 266 517 613 906 1025 1017 1515 2088 2550 2707 2873
0 0 0 0 0 0 0 0 0 0 0 0 0 0 0 0 0 0 0 1 298 308 446 688 922 1103 1195 1310 1815 2442 2608 2833
0 0 0 0 0 0 0 0 0 0 0 0 0 0 0 0 0 0 0 0 3 240 457 487 675 965 1217 1317 1559 1861 2292 2589
0 0 0 0 0 3 0 227 179 0 0 0 0 0 0 0 404 0 0 0 0 0 336 1096 541 790 989 1192 1481 1653 1921 2250
0 0 0 14 14 54 51 37 57 6 0 0 5 0 0 9 589 508 281 35 0 0 0 347 1211 714 742 941 1232 1541 1808 1996
0 2 151 0 30 47 109 931 882 968 551 814 892 1028 955 444 400 737 443 438 1579 28 0 0 576 1004 799 782 937 1269 1482 1595
0 0 0 0 177 414 440 500 499 511 487 471 604 501 654 1146 1494 1731 1775 1857 2025 2077 992 2197 900 1287 1114 939 941 954 1046 1537
0 0 0 421 526 199 42 155 64 27 9 11 87 14 0 0 67 151 72 159 101 532 1898 2727 2420 1771 1290 1148 1218 1571 2567 3015
0 0 0 11 124 99 0 0 0 0 0 0 0 0 0 0 0 0 0 0 0 0 0 0 1927 3123 3036 2839 3199 3060 2640 2381
107 1 2 1 2 2 0 0 0 0 0 0 0 0 0 0 0 0 0 0 0 0 0 0 0 423 3267 3154 2693 2210 1829 1749
42 0 0 0 0 0 0 0 0 0 0 0 0 0 0 0 0 0 0 0 10 1 0 0 50 4 1309 1947 1891 2020 1831 1274

GFSFLT2_con_sbcape_015.txt.gz
CAPE
0 0 0 0 0 0 0 0 0 0 0 0 0 0 0 0 0 0 0 0 4 11 1 69 130 161 545 511 445 855 1146 1134
0 0 0 0 0 0 0 0 0 0 0 0 0 0 0 0 0 0 0 0 1 16 16 14 69 106 392 613 561 517 896 1121
0 0 0 0 0 0 0 0 0 0 0 0 0 0 0 0 0 0 0 0 0 12 21 16 35 47 308 654 672 623 713 917
0 0 0 0 0 0 0 0 0 0 0 0 0 0 0 0 0 0 0 0 0 0 7 41 48 55 318 592 813 749 848 1011
0 0 0 0 0 0 0 0 0 0 0 0 0 0 0 0 0 0 0 0 0 0 0 9 46 76 335 660 894 917 1044 1172
0 0 0 0 0 0 0 0 0 0 0 0 0 0 0 0 0 0 0 0 0 0 0 10 37 156 445 773 971 1031 1206 1383
0 0 0 0 0 0 0 0 0 0 0 0 0 0 0 0 0 0 0 0 0 0 0 1 18 224 568 779 1168 1161 1279 1540
0 0 0 0 0 0 0 0 0 0 0 0 0 0 0 0 0 0 0 0 0 0 0 2 54 305 528 985 1228 1441 1511 1631
0 0 0 0 0 0 0 0 0 0 0 0 0 0 0 0 0 0 0 0 0 0 0 3 164 401 556 1064 1194 1753 1754 1855
0 0 0 0 0 0 0 0 0 0 0 0 0 0 0 0 0 0 0 0 0 0 0 72 338 594 686 1003 1373 1738 1954 1984
0 0 0 0 0 0 0 0 0 0 0 0 0 0 0 0 0 0 0 0 0 0 9 170 444 714 847 927 1366 1879 2017 2140
0 0 0 0 0 0 0 0 0 0 0 0 0 0 0 0 0 0 0 0 0 0 35 177 475 891 974 981 1366 1928 2220 2284
0 0 0 0 0 0 0 0 0 0 0 0 0 0 0 0 2 35 2 64 2 0 7 169 348 812 1033 1088 1163 1605 2059 2380
0 2 0 21 39 100 60 1 212 88 168 166 256 435 642 721 799 590 485 814 1564 1478 946 483 0 368 876 1088 1231 1314 1597 1798
1 0 0 0 1 101 51 96 77 286 396 401 441 142 39 52 2 0 0 0 0 3 46 11 1270 843 438 629 1049 1297 1417 1522
61 10 25 108 8 16 10 23 13 7 0 0 0 0 0 0 0 0 0 0 0 0 0 0 0 100 304 938 720 856 1159 1392
95 27 20 76 0 0 0 0 0 0 0 0 0 0 0 0 0 0 0 0 0 0 0 0 0 0 0 0 19 641 838 1114
18 58 4 1 0 0 0 0 0 0 0 0 0 0 0 0 0 0 0 0 0 0 0 0 0 292 162 0 0 500 1693 2120
307 9 0 0 0 0 0 0 0 0 0 0 0 0 0 0 0 0 0 8 41 61 75 0 164 266 3 0 0 0 1202 2045

GFSFLT2_con_sbcape_021.txt.gz
CAPE
0 0 0 0 0 0 0 0 0 0 0 0 0 0 0 0 0 101 443 736 876 1258 1482 1543 1627 1549 1478 1445 1673 1881 1877 1959
0 0 0 0 0 0 0 0 0 0 0 0 0 0 0 0 0 0 0 217 594 995 1229 1321 1294 1632 1470 1464 1677 1819 1897 1929
0 0 0 0 0 0 0 0 0 0 0 0 0 0 0 0 0 0 0 7 132 566 996 1244 1087 1222 1419 1425 1701 1930 1995 2027
0 0 0 0 0 0 0 0 0 0 0 0 0 0 0 0 0 0 22 86 77 144 356 687 1218 1099 1288 1348 1494 1759 1929 2093
0 0 0 0 0 0 0 0 0 0 0 0 0 0 0 0 0 0 0 19 75 51 128 509 821 1170 1180 1165 1257 1343 1794 1945
0 0 0 0 0 0 0 0 0 0 0 0 0 0 0 0 0 0 0 1 65 108 573 581 763 1007 1073 1213 1196 1326 1513 1818
0 0 0 0 0 0 0 0 0 0 0 0 0 0 0 0 0 0 0 0 0 2 662 913 893 1035 1075 1084 1404 1502 1774 1741
0 0 0 0 0 0 0 0 0 0 0 0 0 0 0 0 0 0 0 0 0 0 171 446 849 1122 1090 1158 1334 1590 1878 1873
0 0 0 0 0 0 0 0 0 0 0 0 0 0 0 0 0 0 0 0 0 0 81 554 632 1108 1133 1260 1411 1656 1570 2019
0 0 0 0 0 0 0 0 0 0 0 0 0 0 0 0 0 0 0 0 0 0 0 774 337 360 1010 1139 1584 1754 1956 2189
0 0 0 0 0 0 0 0 0 0 0 0 0 0 0 0 0 0 0 0 0 0 0 333 598 1083 1398 1434 1685 1867 1983 2202
0 0 0 0 0 0 0 0 0 0 2 0 0 0 0 0 0 0 0 0 0 0 0 29 182 279 1276 1292 1672 2060 2170 2248
0 0 0 0 0 65 10 0 0 0 0 68 88 0 0 0 10 215 316 0 0 10 394 510 658 486 1517 1643 1986 1864 2024 2314
1 0 0 0 0 0 91 62 38 25 0 2 56 256 0 375 1036 1589 1496 604 396 1133 1439 1310 987 1458 1582 1877 1882 2134 2345 2680
0 0 0 0 0 11 117 87 65 26 1 3 56 356 311 1005 1076 933 545 650 1563 1479 1017 1093 1472 1890 2047 2042 1885 2159 2500 3096
14 0 0 0 0 20 82 60 42 23 11 20 183 218 566 300 87 17 0 0 0 1 123 329 518 656 947 951 2228 2314 2467 2908
51 4 0 0 0 25 95 29 68 10 3 5 24 16 0 0 0 0 0 0 17 287 399 284 335 285 126 137 218 511 1564 2353
4 24 30 0 25 100 93 133 36 0 37 17 19 2 1 2 3 2 27 335 598 818 792 482 89 91 114 179 153 212 344 426
46 13 6 10 7 14 97 208 59 49 87 40 8 4 1 3 13 7 0 1 7 64 163 603 859 822 705 602 685 513 448 334

GFSFLT2_con_sbcape_024.txt.gz
CAPE
0 0 0 0 0 0 0 0 0 0 0 0 0 0 0 0 0 0 670 1120 1273 1270 1556 1746 1793 2305 2678 3055 3436 3036 2552 3487
0 0 0 0 0 0 0 0 0 0 0 0 0 0 0 0 0 0 167 869 1087 1279 1376 1662 1848 1925 2252 2759 3295 3408 2986 3095
0 0 0 0 0 0 0 0 0 0 0 0 0 0 0 0 0 0 33 265 722 973 1199 1342 1658 1986 2085 2261 2813 2683 3190 3390
0 0 0 0 0 0 0 0 0 0 0 0 0 0 0 0 0 0 0 39 96 239 673 1151 1460 1745 2016 2152 2155 2492 2875 3552
0 0 0 0 0 0 0 0 0 0 0 0 0 0 0 0 0 0 0 46 150 121 242 763 1213 1638 1584 1847 1968 1982 2772 2535
0 0 0 0 0 0 0 0 0 0 0 0 0 0 0 0 0 0 0 0 0 31 140 461 1136 2027 2420 1570 1658 1757 1891 2274
0 0 0 0 0 0 0 0 0 0 0 0 0 0 0 0 0 0 0 0 0 47 400 966 1112 1816 2448 1913 1976 1845 2559 2154
0 0 0 0 0 0 0 0 0 0 0 0 0 0 0 0 0 0 0 0 0 0 57 349 914 1355 1446 2260 1893 2122 2885 2826
0 0 0 0 0 0 0 0 0 0 0 0 0 0 0 0 0 0 0 0 0 0 0 58 136 857 1315 1720 1815 2554 2907 3275
0 0 0 0 0 0 0 0 0 0 0 0 0 0 0 0 0 0 0 0 0 0 0 0 3 2 927 1388 2597 2791 3275 3401
0 0 0 0 0 0 0 0 0 0 0 0 0 0 0 0 0 0 0 0 0 0 0 77 0 46 386 1449 1830 2207 3311 3425
0 0 0 0 0 0 0 0 0 0 0 0 35 0 0 0 0 0 0 0 0 0 0 0 15 70 627 1188 1661 2424 3127 2921
1 0 0 0 0 41 1 94 28 5 1 87 299 180 511 544 217 6 1 16 15 0 0 41 390 420 619 1310 1792 2263 2410 2453
2 1 0 0 0 0 53 63 22 22 4 36 271 562 627 703 886 262 83 325 797 6 78 774 1443 1508 1402 2811 2191 2583 2836 2733
8 0 0 0 0 0 0 0 0 0 0 0 1 320 794 1200 822 651 855 1283 1488 799 1623 1966 2277 2369 2469 2454 2427 2547 2759 3175
27 0 9 3 0 0 0 0 0 0 0 0 0 188 923 1193 1082 1152 808 891 1103 1580 1601 2071 2834 3096 3317 3097 2920 3072 3267 3406
62 54 19 12 0 0 0 9 1 0 2 1 4 25 993 1077 833 550 353 506 998 1128 1196 1295 1265 1139 1061 1198 1538 2956 3161 3181
37 22 38 34 22 9 21 3 2 2 0 60 29 72 70 108 253 514 729 1018 1183 1146 1125 865 902 1185 1481 1474 1569 1359 1152 1041
46 83 82 74 51 0 0 0 0 4 83 100 73 56 66 145 193 126 401 375 536 724 1105 1380 698 305 485 1399 1268 1312 1249 1203

GFSFLT2_con_sbcape_027.txt.gz
CAPE
0 0 0 0 0 0 0 0 0 0 0 0 0 0 0 0 4 44 249 613 1135 1348 1564 1805 1567 2275 2657 3347 3991 4148 3889 4147
0 0 0 0 0 0 0 0 0 0 0 0 0 0 0 0 0 0 51 512 1029 1262 1548 2000 1569 1980 2636 3175 3902 4030 3846 4014
0 0 0 0 0 0 0 0 0 0 0 0 0 0 0 0 0 0 0 331 935 1261 1418 1742 1770 1674 2103 2863 3658 3994 3889 3921
0 0 0 0 0 0 0 0 0 0 0 0 0 0 0 0 0 0 0 150 776 1036 1166 1293 1694 1900 2032 2266 2423 3703 3735 4051
1 0 0 0 0 0 0 0 0 0 0 0 0 0 0 0 0 0 0 56 311 800 965 1114 1326 2170 2021 2511 2221 2244 3341 3507
0 0 0 0 0 0 0 0 0 0 0 0 0 0 0 0 0 0 2 32 132 156 187 717 1426 2395 2879 2280 2298 2352 2555 2825
0 4 0 0 0 0 0 0 0 0 0 0 0 0 0 0 0 0 0 0 0 18 180 611 1795 2852 3022 2312 2731 2641 3274 3276
0 0 0 0 0 0 0 0 0 0 0 0 0 0 0 0 0 0 0 0 0 0 0 476 848 2085 2558 3291 2740 2674 3536 3382
5 0 1 0 0 0 0 0 0 0 0 0 0 0 0 0 0 0 0 0 0 0 0 47 443 810 1344 2903 3011 3016 3278 3948
19 8 11 0 0 0 0 0 0 0 0 0 0 0 0 0 0 0 0 0 0 0 0 0 0 0 1042 1052 3411 3665 3845 3718
8 16 0 0 0 0 0 0 0 0 0 0 0 0 0 0 0 0 0 0 0 0 0 49 0 0 0 962 2517 3614 3745 4143
12 4 35 12 0 0 0 0 0 0 0 0 0 0 18 425 384 112 23 11 10 0 0 0 8 0 0 120 1393 3443 3843 4067
9 2 3 19 29 12 7 312 180 11 7 11 25 298 674 694 791 703 710 583 258 347 348 84 67 46 978 1129 1539 2618 3011 3685
14 12 2 0 0 55 26 6 12 21 7 6 49 144 228 405 863 1156 1034 661 102 352 828 417 230 789 2248 2740 2981 3726 3900 4010
6 10 9 0 1 1 0 0 0 1 3 0 0 0 1 259 1114 1453 1149 1263 1216 1330 1113 1229 2193 2362 2572 4149 3558 4047 4421 4652
13 1 0 0 0 0 0 0 0 0 0 0 0 0 6 369 1503 1467 1383 1379 1330 1707 1942 2432 3376 3110 3281 3674 3198 3057 3641 4194
8 12 2 2 2 0 0 0 0 0 1 0 0 0 85 482 1747 1521 1278 1076 1662 1865 2230 2264 2304 2179 2145 2342 3354 3575 3778 3775
59 41 30 5 1 0 0 0 0 0 0 0 0 0 113 403 1089 1566 1481 1696 1943 2052 1762 1633 1876 1951 2027 2053 2097 2197 3133 3449
84 46 41 53 39 26 0 8 0 0 0 0 0 23 200 335 672 539 729 869 1177 1601 1331 1077 603 1071 1643 1810 1894 1941 2055 1996

GFSFLT2_con_sbcape_030.txt.gz
CAPE
0 0 0 0 0 0 0 0 0 0 0 0 0 0 0 25 128 118 218 467 1184 1704 1709 1497 1292 1529 1895 2714 3133 3287 2884 3274
0 0 0 0 0 0 0 0 0 0 0 0 0 0 0 6 17 86 225 457 1110 1579 1878 1631 1329 1516 1746 2485 3122 3408 3403 3170
0 0 0 0 0 0 0 0 0 0 0 0 0 0 0 0 0 53 391 588 943 1632 1891 1910 1504 1571 1709 1972 3022 3460 3499 3417
0 0 0 0 0 0 0 0 0 0 13 0 13 0 0 0 0 24 188 796 886 1334 1817 2105 1843 1646 1802 2064 2646 3305 3699 3697
0 4 0 0 0 0 0 0 0 0 0 0 1 21 17 0 109 157 473 549 873 1324 1587 1990 2103 1970 1949 2081 2257 3170 3663 3742
0 0 0 0 0 0 0 0 0 0 0 0 0 0 0 69 114 118 655 606 1029 1216 1636 1847 2188 2375 2268 2138 2322 2542 3430 3690
0 0 7 0 0 0 0 0 0 0 0 0 0 2 0 6 215 309 592 842 1207 1264 1670 1931 2291 2535 2677 2484 2444 2505 2620 3393
6 0 0 4 0 0 0 0 0 0 2 0 0 26 5 33 22 38 71 117 238 494 661 1453 2926 3005 2762 2776 2913 2815 2856 2923
0 0 0 2 2 0 0 0 0 0 11 8 4 22 2 0 0 0 0 0 0 87 588 1014 1441 3500 3232 3052 3090 3470 3296 3377
0 0 2 0 3 1 0 0 0 0 43 200 103 51 0 0 0 0 0 0 68 0 13 496 162 478 1999 3242 3699 3480 4006 3837
0 1 0 10 0 0 0 1 5 4 12 1 0 0 0 0 0 0 0 14 35 0 0 882 435 687 1139 1448 3423 3518 3292 3752
0 0 2 0 0 0 0 1 402 40 0 0 0 0 641 897 763 757 749 991 1329 971 858 455 1589 492 1504 1564 2778 3301 3327 3498
0 0 0 0 0 0 11 121 85 97 113 89 268 839 632 210 446 841 1165 1278 1301 1348 1315 2392 2410 1692 2935 2489 2116 3228 3455 3777
0 0 0 0 0 26 62 0 0 0 0 0 0 0 55 50 291 902 1462 1347 982 1414 1474 2031 1850 2288 2773 3552 4227 4239 4593 4149
0 0 62 0 0 0 0 0 0 0 0 0 0 0 0 277 594 1697 2084 1896 1679 2169 2780 3437 3167 4420 4355 4951 4848 4729 5226 4998
1 0 0 0 0 0 0 0 0 0 0 0 0 0 0 216 475 1314 2315 2031 1510 2116 2816 4430 4845 4804 4775 4964 4386 4626 5171 5377
14 0 0 0 0 0 0 0 0 0 0 0 0 0 0 7 385 653 1769 2463 3102 3361 2996 2888 2878 2903 2840 3321 4160 4356 4562 4849
7 20 49 25 1 0 0 0 0 0 0 0 0 0 0 99 552 733 1106 1526 2364 2724 2215 2400 2309 2241 2574 2555 3146 4330 4902 4560
1 0 0 0 0 0 0 0 0 0 0 0 0 0 0 11 369 408 693 1158 1434 2050 1523 1488 1406 1637 1846 2142 2597 3213 3229 3725

GFSFLT2_con_sbcape_033.txt.gz
CAPE
0 0 0 0 0 0 0 0 0 0 0 0 0 0 0 0 20 187 449 743 514 479 505 367 660 1075 1578 1946 1733 1917 1980 1744
0 0 0 0 0 0 0 0 0 0 0 0 0 0 0 0 0 43 685 324 811 603 579 486 565 994 1178 2068 1849 1840 1744 1933
0 0 0 0 0 0 0 0 0 0 0 0 0 0 0 0 0 0 138 890 1059 844 763 676 588 959 1172 1662 2034 2015 1899 1761
0 0 0 0 0 0 0 0 0 0 0 0 0 0 0 0 0 0 25 769 1287 1159 1057 874 698 890 1090 1365 2098 2160 2203 1887
0 0 0 0 0 0 0 0 0 0 0 0 0 0 0 0 0 0 41 721 1162 1345 1266 1107 821 812 927 1228 1859 2219 2367 2414
0 0 0 0 0 0 0 0 0 0 0 0 0 0 0 0 4 0 344 513 1040 1245 1426 1300 991 869 951 1031 1397 2204 2437 2578
0 0 0 0 0 0 0 0 0 0 0 0 1 6 17 24 20 96 179 509 825 1231 1414 1494 1258 999 1016 1063 1250 1556 2438 2704
0 0 0 0 0 0 0 0 0 0 0 0 2 5 0 0 0 0 174 492 520 845 1291 1528 1582 1341 1209 1204 1333 1473 2166 2581
0 0 1 0 0 0 0 0 0 0 0 1 13 0 0 0 0 0 0 0 26 81 647 1400 1659 1735 1635 1555 1465 1618 1742 2251
0 0 0 0 0 3 0 0 0 0 9 0 42 134 23 0 0 0 0 0 0 0 0 5 929 1986 1901 1926 1925 1759 1819 1941
0 0 0 0 0 0 3 2 9 325 182 93 570 591 426 533 590 595 454 492 520 315 479 100 0 355 2330 2402 2445 2527 2180 2309
0 0 0 0 0 0 0 4 0 163 344 51 476 407 208 224 480 739 865 848 702 542 276 970 701 385 1058 2340 2516 2440 2655 3038
0 0 0 0 0 0 6 0 0 0 1 115 76 69 7 35 295 998 1165 1132 624 620 445 552 902 311 318 1107 2223 2737 2550 2472
0 5 0 0 0 0 0 0 0 0 0 0 0 0 48 120 348 638 1680 1452 1210 1122 1358 656 699 392 781 1999 2190 2285 2649 2780
0 14 1 0 0 0 0 0 0 0 0 0 0 0 0 50 103 63 1039 1767 2086 1964 1830 3845 3468 3254 2777 3142 3462 3083 3764 3136
0 0 0 0 0 0 0 0 0 0 0 0 0 0 0 0 157 146 193 704 1383 2016 2555 2714 2523 2467 2427 2559 2738 3741 3190 4457
0 3 0 0 0 0 0 0 0 0 0 0 0 0 0 0 52 40 0 119 540 868 1697 2241 2193 1916 2070 2258 2413 2604 3779 4594
0 0 4 0 0 0 0 0 0 0 0 0 0 0 0 0 13 174 153 76 97 495 1269 1753 1527 1337 1341 1879 1963 2414 3672 3907
0 0 0 0 0 0 0 0 0 0 0 0 0 0 0 0 0 6 109 228 347 746 1235 1230 1255 1286 1302 1707 1759 1817 2279 2785

GFSFLT2_con_sbcape_036.txt.gz
CAPE
0 0 0 0 0 0 0 0 0 0 0 0 0 0 0 22 109 321 279 124 196 287 280 209 467 670 565 512 607 1125 1005 1060
0 0 0 0 0 0 0 0 0 0 0 0 0 0 0 0 96 405 447 226 130 269 352 278 504 733 857 809 715 1170 1195 980
0 0 0 0 0 0 0 0 0 0 0 0 0 0 0 1 25 315 415 319 40 266 407 358 423 721 1252 1189 1058 1320 1490 1424
0 0 0 0 0 0 0 0 0 0 0 0 0 0 0 0 125 130 207 302 157 451 436 421 442 702 1174 1592 1386 1378 1661 1663
0 0 0 0 0 0 0 0 0 0 0 0 0 0 0 0 0 21 73 302 561 559 449 510 421 633 1025 1589 1665 1543 1562 1555
0 0 0 0 0 0 0 0 0 0 0 0 0 0 0 0 0 0 146 725 645 668 566 618 474 508 897 1101 1832 1710 1701 1680
0 0 0 0 0 0 0 0 0 0 0 0 0 0 0 0 0 0 482 749 756 802 737 747 611 536 907 1068 1493 1874 1903 1921
0 0 0 0 0 0 0 0 0 0 0 0 0 0 0 0 0 0 448 937 1074 1016 950 940 805 682 843 973 1335 1853 2015 2064
0 0 0 0 0 0 0 0 0 0 0 0 8 81 26 0 0 4 273 949 1234 1224 1115 1181 1016 813 822 883 1075 1756 2041 2100
0 0 0 0 0 0 0 0 0 0 33 184 512 448 357 361 7 6 0 0 0 491 942 1196 1143 967 864 919 1020 1166 1562 2157
0 0 0 0 0 0 0 0 0 0 328 500 363 298 276 109 438 154 54 0 62 50 6 239 1394 1383 1191 1068 1123 1207 1324 1447
0 0 0 0 0 0 0 0 0 0 109 167 48 244 90 99 756 1068 279 17 3 0 126 130 19 866 1605 1490 1497 1417 1423 1599
0 0 0 0 0 0 0 0 0 0 0 0 39 38 25 17 38 921 1133 791 657 1119 833 67 5 257 1176 1497 1915 1916 1799 1592
0 0 7 3 0 0 0 0 0 0 0 0 0 0 0 0 0 62 473 1068 1843 2623 2422 2352 1508 1071 1921 1993 1921 1548 1909 2123
12 17 1 20 1 0 0 0 0 0 0 0 0 0 0 0 0 0 2 167 588 1582 1887 1916 1847 1840 1932 1944 2195 2532 2122 2034
1 0 0 0 0 0 0 0 0 0 0 0 0 0 0 0 0 0 0 6 178 540 1593 1604 1586 1556 1686 1600 1694 2009 2527 2875
0 0 0 0 0 0 0 0 0 0 0 0 0 0 0 0 0 0 0 0 11 303 978 1292 1024 922 858 1260 1368 1735 1908 3100
0 0 0 0 0 0 0 0 0 0 0 0 0 0 0 0 0 0 0 0 37 206 858 1007 901 862 827 1050 1282 1370 1657 2670
2 0 0 0 0 0 0 0 0 0 0 0 0 0 0 0 0 0 0 0 0 36 365 693 589 693 718 979 905 756 1104 549

GFSFLT2_con_sbcape_042.txt.gz
CAPE
0 0 0 0 0 0 0 0 0 0 0 0 0 0 0 125 187 169 187 174 170 189 143 77 54 16 0 0 0 0 0 0
0 0 0 0 0 0 0 0 0 0 0 0 0 0 0 0 42 120 127 38 78 129 111 118 87 89 0 0 6 9 0 0
0 0 0 0 0 0 0 0 0 0 0 0 0 0 0 0 20 72 84 14 8 57 146 109 109 113 49 18 28 28 45 53
0 0 0 0 0 0 0 0 0 0 0 0 0 0 0 0 2 60 82 49 0 18 107 121 74 94 74 58 65 139 134 148
0 0 0 0 0 0 0 0 0 0 0 0 0 0 0 0 0 0 59 77 43 36 55 123 108 105 115 100 103 197 267 239
0 0 0 0 0 0 0 0 0 0 0 0 0 0 0 0 0 0 4 30 45 67 103 153 164 125 204 153 147 186 397 431
1 1 0 0 0 0 0 0 0 0 0 0 0 0 0 0 0 0 0 2 32 66 104 144 182 153 374 351 251 253 357 612
0 0 0 0 0 0 0 0 0 0 0 0 0 0 0 0 0 0 0 0 7 86 143 115 194 210 388 578 520 428 405 671
0 0 0 0 0 0 0 0 0 0 0 0 0 94 47 13 17 116 0 0 0 57 150 96 224 271 372 652 809 765 681 796
0 0 0 0 0 0 0 0 0 0 0 0 12 107 45 7 1 112 121 0 0 90 174 121 244 307 287 723 1184 1148 1069 1100
0 0 0 0 0 0 0 0 0 0 0 0 6 51 122 0 0 82 790 0 0 50 177 176 251 306 420 854 1386 1479 1447 1442
4 0 25 0 0 0 0 0 0 0 0 0 17 138 22 0 10 93 794 638 1 93 163 209 299 310 575 822 1186 1599 1647 1669
22 7 3 2 0 0 0 0 0 0 0 0 0 0 0 0 18 136 760 1187 395 291 334 316 366 397 638 805 980 1148 1482 1761
25 20 13 15 0 0 0 0 0 0 0 0 0 0 0 0 2 18 283 723 1112 1116 998 596 414 569 677 777 799 771 1117 1610
20 26 0 9 0 0 0 0 0 0 0 0 0 0 0 0 0 0 0 64 470 573 732 900 1123 1411 1588 1539 2000 1072 868 1075
7 2 1 3 0 0 0 0 0 0 0 0 0 0 0 0 0 0 0 0 14 353 401 382 505 781 950 1221 1590 1451 1477 1295
4 0 0 0 0 0 0 0 0 0 0 0 0 0 0 0 0 0 0 0 0 1 133 134 204 401 560 734 1063 1465 1994 2589
7 0 2 0 0 0 0 0 0 0 0 0 0 0 0 0 0 0 0 0 0 3 3 71 82 360 421 401 482 835 1295 1361
10 13 3 0 0 0 0 0 0 0 0 0 0 0 0 0 0 0 0 0 0 1 1 31 20 24 79 1 42 265 558 572

GFSFLT2_con_sbcape_045.txt.gz
CAPE
0 0 0 0 0 0 0 0 0 0 0 0 0 0 0 32 279 587 733 662 581 491 527 713 683 735 786 840 811 771 543 1077
0 0 0 0 0 0 0 0 0 0 0 0 0 0 0 0 88 406 624 768 691 640 606 748 633 686 748 773 864 867 760 882
0 0 0 0 0 2 0 0 0 0 0 0 0 0 0 0 0 107 471 703 765 902 910 777 553 685 772 667 908 835 847 882
0 0 0 0 0 0 44 0 0 0 0 0 0 0 0 0 0 1 189 495 755 816 799 818 999 892 766 840 634 821 869 968
0 0 0 0 0 0 0 2 5 2 0 0 0 0 0 0 0 12 135 307 510 468 750 1095 1075 1097 987 915 651 582 922 636
0 0 0 0 0 0 0 27 6 9 0 0 0 0 0 0 0 0 12 182 333 222 582 925 1056 1197 1207 1018 764 770 738 835
0 0 0 0 0 0 0 0 25 1 5 0 0 0 0 0 0 0 0 3 264 352 540 874 1188 1149 1237 1160 1205 1034 1297 1210
0 0 0 0 0 0 0 0 0 0 1 0 0 0 0 0 4 24 50 1 26 296 654 781 1092 1143 1144 1235 1300 1359 1509 1498
3 0 7 17 0 0 0 0 0 0 0 0 0 244 160 124 132 141 209 446 250 3 682 910 1092 1292 1218 1327 1417 1472 1594 1780
9 13 41 3 15 0 5 0 0 0 0 0 77 503 315 10 1 30 118 318 604 314 36 1001 790 881 1246 1277 1571 1595 1726 1892
69 57 5 130 6 5 31 0 0 0 0 0 249 853 672 0 0 3 55 135 922 890 0 849 1049 1360 1520 1703 1732 1747 1837 1961
38 49 23 7 1 0 0 0 0 0 0 0 356 771 188 0 0 39 440 1111 772 180 5 817 1220 1234 1630 1694 2004 2018 2071 2133
40 36 3 13 6 0 34 1 0 0 0 6 6 2 1 2 0 2 194 879 726 493 1038 1222 1450 1471 1814 2099 2312 2170 2078 2183
25 25 6 7 0 1 2 0 0 0 0 10 0 0 0 0 0 0 77 444 1205 946 1092 1336 1591 1766 2029 2344 2713 2950 3037 2941
10 5 4 14 11 3 1 0 0 0 0 0 0 0 0 0 0 0 1 458 816 1357 1547 1500 1284 1848 1997 2184 2723 2936 3202 3315
11 10 22 7 6 5 0 0 0 0 0 0 0 0 0 0 0 0 0 40 581 1039 1281 1545 1891 2122 2286 2479 1972 2390 2995 3261
11 7 1 0 0 7 3 0 0 0 0 0 0 0 0 0 0 0 0 0 101 534 901 1007 1420 1371 1322 1771 2630 2300 2231 2503
16 15 23 8 8 12 3 1 0 0 0 0 0 0 0 0 0 0 0 0 0 21 612 679 723 657 632 585 1228 2390 3255 2691
24 10 6 1 1 1 4 2 0 0 0 0 0 0 0 0 0 0 0 0 0 0 0 251 308 147 123 424 634 1156 1497 1211

GFSFLT2_con_sbcape_048.txt.gz
CAPE
0 0 0 0 0 0 0 0 0 0 0 0 0 0 0 0 98 212 672 896 1044 1062 867 690 813 1241 1360 1688 1749 1532 1136 2209
0 0 0 0 0 12 3 4 0 0 0 0 0 0 0 0 3 111 581 905 1044 1107 1086 870 824 882 900 968 1559 1342 1144 1292
0 0 0 0 0 4 25 4 0 0 0 0 0 0 0 0 0 26 395 869 1063 1116 1135 1074 870 862 970 1047 1205 1362 1469 1710
0 0 0 0 0 7 42 20 2 4 15 0 0 0 0 0 0 24 124 577 887 952 1032 1111 1095 941 953 1026 1083 1236 1862 2306
0 0 0 0 0 0 0 4 25 25 3 0 0 0 0 0 0 7 58 229 682 725 932 1068 1198 1219 996 991 987 1063 1443 1257
0 0 0 0 0 0 21 41 2 7 13 37 0 0 0 0 0 0 3 54 171 563 743 1150 1414 2168 2022 1230 994 956 1163 1172
0 0 0 0 0 0 0 4 4 1 36 3 15 0 0 0 0 0 0 12 149 293 734 1627 2038 2512 2154 1441 1699 1418 2055 1288
5 1 0 0 0 0 0 0 0 0 0 0 5 0 0 0 0 0 0 0 0 70 329 806 1362 2230 2536 2532 1956 1922 2548 2185
18 0 1 2 0 0 0 0 0 0 0 13 16 4 0 0 0 37 88 123 236 130 79 448 941 1765 2157 2664 2259 2377 2795 2727
59 29 84 1 0 0 0 0 0 0 0 8 22 24 824 526 397 364 334 357 471 548 657 137 544 857 1489 1699 2769 2813 2997 3027
166 103 30 0 0 9 0 0 0 2 0 0 1 102 1076 499 259 333 430 568 774 862 924 1124 289 723 1500 1444 2019 2626 2992 3226
153 57 36 12 0 0 34 63 95 58 114 40 20 210 375 109 38 117 271 526 876 1398 1639 1392 1397 525 1044 1532 1896 2736 2909 3154
74 80 36 0 0 14 18 112 7 1 0 197 332 58 0 0 0 0 20 407 1205 1626 1727 1543 1177 629 2064 2110 2299 2636 2214 2318
69 47 26 1 5 17 27 4 1 0 0 0 0 0 0 0 0 0 0 813 1682 1224 841 699 562 1774 2847 2827 2782 3047 3111 3070
35 27 3 1 10 49 7 11 4 0 1 0 0 0 0 0 0 0 0 23 1515 1589 1150 1151 1470 1846 2265 3089 3177 3055 3139 3654
10 6 13 13 35 56 26 13 4 4 0 2 1 0 0 0 0 0 0 0 217 1223 1922 2028 1773 1815 2094 2538 3586 3205 3305 3579
6 7 11 30 30 61 27 10 3 2 1 0 3 2 0 0 0 0 0 0 0 132 842 1059 1326 1636 2259 2655 2698 2984 3164 3240
17 17 17 5 39 42 25 6 5 0 0 4 0 0 0 0 2 0 0 0 0 0 32 279 435 728 1102 1865 2709 2447 2530 2735
27 17 41 50 22 16 13 7 9 2 8 0 0 0 1 10 10 8 0 3 1 6 2 26 49 72 344 1480 1951 2836 2848 3544